Hourly Data Report for September 19, 2017

All times are specified in Local Standard Time (LST). Add 1 hour to adjust for Daylight Saving Time where and when it is observed.

MONCTON INTL A
NEW BRUNSWICK

46°06'44.000" N
64°40'43.000" W
70.70 m
8103201
71705
YQM

Download Data

Hourly Data (September 2017)
Hourly Data Report for September 19, 2017
Temp Definition
°C
Dew Point Temp Definition
°C
Rel Hum Definition
%
Wind Dir Definition
10's deg

Wind Spd Definition
km/h
Visibility Definition
km
Stn Press Definition
kPa
Hmdx Definition


Wind Chill Definition


Weather Definition


TIME
00:00 Legend Double Dagger 17.1 16.1 93 18 9 24.1 101.59     LegendNANA
01:00 Legend Double Dagger 17.2 15.7 91 16 17 24.1 101.62     LegendNANA
02:00 Legend Double Dagger 16.7 15.8 94 16 11 24.1 101.59     Rain Showers
03:00 Legend Double Dagger 16.4 15.8 96 14 11 24.1 101.54     Rain Showers
04:00 Legend Double Dagger 16.4 15.7 95 16 11 24.1 101.56     LegendNANA
05:00 Legend Double Dagger 16.5 15.8 95 15 9 24.1 101.54     Mostly Cloudy
06:00 Legend Double Dagger 16.6 15.9 96 15 14 24.1 101.59     LegendNANA
07:00 Legend Double Dagger 16.8 16.1 95 15 9 24.1 101.60     LegendNANA
08:00 Legend Double Dagger 17.4 16.4 94 14 9 24.1 101.60     Mostly Cloudy
09:00 Legend Double Dagger 18.5 16.5 88 14 13 24.1 101.61     LegendNANA
10:00 Legend Double Dagger 18.9 16.4 85 17 13 24.1 101.60     LegendNANA
11:00 Legend Double Dagger 19.1 16.1 83 15 13 24.1 101.57     Cloudy
12:00 Legend Double Dagger 19.5 16.4 82 16 12 24.1 101.54     LegendNANA
13:00 Legend Double Dagger 19.6 16.5 82 16 11 24.1 101.47     LegendNANA
14:00 Legend Double Dagger 20.1 16.9 82 14 16 24.1 101.42 25   Cloudy
15:00 Legend Double Dagger 21.1 17.8 81 17 8 24.1 101.34 27   LegendNANA
16:00 Legend Double Dagger 21.9 18.1 79 16 14 24.1 101.28 28   LegendNANA
17:00 Legend Double Dagger 21.0 18.2 83 15 16 24.1 101.28 27   Mostly Cloudy
18:00 Legend Double Dagger 20.4 18.4 88 15 13 24.1 101.25 27   LegendNANA
19:00 Legend Double Dagger 19.9 18.5 91 14 9 24.1 101.26     LegendNANA
20:00 Legend Double Dagger 19.7 18.5 93 16 8 24.1 101.27     Mostly Cloudy
21:00 Legend Double Dagger 19.7 18.5 93 16 4 24.1 101.27     LegendNANA
22:00 Legend Double Dagger 19.6 18.6 94 15 10 24.1 101.23     LegendNANA
23:00 Legend Double Dagger 19.5 18.7 95 18 4 24.1 101.21     Rain Showers

Notes on Data Quality.

Legend

  • E = Estimated
  • M = Missing
  • NA = Not Available
  • ‡ = Partner data that is not subject to review by the National Climate Archives
Date modified: